• In Hungary
  • List of Countries
  • For 7 days
  • Water Temperature
  • Satellite Maps
  • Weather Map
  • News
  • Weather Widgets
  • user-avatar
    Login

    Hourly Weather Cochabamba

    Today, 18 February, Sunday

    Time Temperature Precipitation Wind Pressure Humidity
    00:00 +15°C° 0.3 mm 2 mps 554 mmHg 81%
    01:00 +15°C° 0.3 mm 2 mps 554 mmHg 82%
    02:00 +14°C° 0 mm 1 mps 554 mmHg 81%
    03:00 +14°C° 0.2 mm 2 mps 554 mmHg 82%
    04:00 +14°C° 0.2 mm 2 mps 554 mmHg 83%
    05:00 +14°C° 0.2 mm 2 mps 554 mmHg 83%
    06:00 +14°C° 0 mm 2 mps 554 mmHg 80%
    07:00 +15°C° 0 mm 2 mps 554 mmHg 76%
    08:00 +16°C° 0 mm 1 mps 555 mmHg 70%
    09:00 +18°C° 0 mm 2 mps 555 mmHg 64%
    10:00 +19°C° 0 mm 2 mps 556 mmHg 58%
    11:00 +21°C° 0 mm 3 mps 556 mmHg 52%
    12:00 +22°C° 0.1 mm 3 mps 555 mmHg 50%
    13:00 +22°C° 0.1 mm 3 mps 555 mmHg 49%
    14:00 +24°C° 0.1 mm 3 mps 555 mmHg 47%
    15:00 +23°C° 0.1 mm 4 mps 554 mmHg 50%
    16:00 +22°C° 0.1 mm 4 mps 553 mmHg 52%
    17:00 +22°C° 0.1 mm 5 mps 552 mmHg 55%
    18:00 +20°C° 0.1 mm 4 mps 552 mmHg 62%
    19:00 +19°C° 0.1 mm 4 mps 552 mmHg 69%
    20:00 +17°C° 0.1 mm 4 mps 551 mmHg 76%
    21:00 +16°C° 0.1 mm 3 mps 552 mmHg 77%
    22:00 +16°C° 0.1 mm 3 mps 552 mmHg 78%
    23:00 +15°C° 0.1 mm 2 mps 552 mmHg 79%

    Tomorrow, 19 February, Monday

    Time Temperature Precipitation Wind Pressure Humidity
    00:00 +15°C° 0.1 mm 2 mps 552 mmHg 78%
    01:00 +14°C° 0.1 mm 2 mps 552 mmHg 76%
    02:00 +14°C° 0.1 mm 2 mps 551 mmHg 74%
    03:00 +13°C° 0 mm 2 mps 551 mmHg 72%
    04:00 +13°C° 0 mm 2 mps 551 mmHg 70%
    05:00 +12°C° 0 mm 2 mps 550 mmHg 68%
    06:00 +14°C° 0 mm 2 mps 552 mmHg 59%
    07:00 +16°C° 0 mm 2 mps 553 mmHg 50%
    08:00 +17°C° 0 mm 2 mps 554 mmHg 42%
    09:00 +19°C° 0 mm 2 mps 554 mmHg 36%
    10:00 +21°C° 0 mm 2 mps 555 mmHg 31%
    11:00 +24°C° 0 mm 2 mps 556 mmHg 25%
    12:00 +24°C° 0 mm 2 mps 555 mmHg 27%
    13:00 +25°C° 0 mm 2 mps 555 mmHg 29%
    14:00 +25°C° 0 mm 2 mps 555 mmHg 31%
    15:00 +25°C° 0.1 mm 2 mps 554 mmHg 35%
    16:00 +24°C° 0.1 mm 3 mps 553 mmHg 39%
    17:00 +23°C° 0.1 mm 4 mps 553 mmHg 43%
    18:00 +21°C° 0.1 mm 3 mps 553 mmHg 53%
    19:00 +19°C° 0.1 mm 3 mps 552 mmHg 63%
    20:00 +17°C° 0.1 mm 3 mps 552 mmHg 72%
    21:00 +17°C° 0 mm 2 mps 552 mmHg 75%
    22:00 +16°C° 0 mm 2 mps 552 mmHg 77%
    23:00 +16°C° 0 mm 1 mps 553 mmHg 80%

    Day after tomorrow, 20 February, Tuesday

    Time Temperature Precipitation Wind Pressure Humidity
    00:00 +15°C° 0.1 mm 1 mps 552 mmHg 80%
    01:00 +15°C° 0.1 mm 1 mps 552 mmHg 80%
    02:00 +14°C° 0.1 mm 1 mps 552 mmHg 80%
    03:00 +14°C° 0 mm 1 mps 552 mmHg 80%
    04:00 +14°C° 0 mm 1 mps 551 mmHg 81%
    05:00 +12°C° 0 mm 0 mps 551 mmHg 81%
    06:00 +13°C° 0 mm 0 mps 552 mmHg 76%
    07:00 +14°C° 0 mm 0 mps 553 mmHg 70%
    08:00 +15°C° 0 mm 0 mps 554 mmHg 65%
    09:00 +19°C° 0 mm 1 mps 555 mmHg 58%
    10:00 +21°C° 0 mm 1 mps 556 mmHg 51%
    11:00 +22°C° 0 mm 1 mps 556 mmHg 44%
    12:00 +23°C° 0.2 mm 1 mps 556 mmHg 44%
    13:00 +23°C° 0.2 mm 2 mps 555 mmHg 44%
    14:00 +24°C° 0.2 mm 2 mps 555 mmHg 44%
    15:00 +24°C° 0.2 mm 2 mps 554 mmHg 46%
    16:00 +22°C° 0.2 mm 3 mps 554 mmHg 49%
    17:00 +22°C° 0.2 mm 3 mps 553 mmHg 51%
    18:00 +20°C° 0.2 mm 2 mps 553 mmHg 58%
    19:00 +19°C° 0.2 mm 2 mps 553 mmHg 64%
    20:00 +18°C° 0.2 mm 1 mps 553 mmHg 71%
    21:00 +18°C° 0.3 mm 1 mps 554 mmHg 73%
    22:00 +16°C° 0.3 mm 1 mps 554 mmHg 76%
    23:00 +16°C° 0.3 mm 1 mps 554 mmHg 78%

    21 February, Wednesday

    Time Temperature Precipitation Wind Pressure Humidity
    00:00 +15°C° 0.3 mm 1 mps 554 mmHg 80%
    01:00 +15°C° 0.3 mm 1 mps 554 mmHg 81%
    02:00 +15°C° 0.3 mm 1 mps 553 mmHg 82%
    03:00 +14°C° 0.4 mm 1 mps 553 mmHg 83%
    04:00 +14°C° 0.4 mm 1 mps 553 mmHg 84%
    05:00 +14°C° 0.4 mm 1 mps 553 mmHg 86%
    06:00 +15°C° 0.3 mm 2 mps 554 mmHg 82%
    07:00 +15°C° 0.3 mm 2 mps 555 mmHg 79%
    08:00 +16°C° 0.3 mm 2 mps 556 mmHg 76%
    09:00 +17°C° 0.5 mm 2 mps 557 mmHg 70%
    10:00 +18°C° 0.5 mm 2 mps 557 mmHg 65%
    11:00 +19°C° 0.5 mm 2 mps 557 mmHg 60%
    12:00 +20°C° 0.5 mm 3 mps 557 mmHg 59%
    13:00 +20°C° 0.5 mm 3 mps 557 mmHg 57%
    14:00 +21°C° 0.5 mm 3 mps 556 mmHg 56%
    15:00 +20°C° 0.6 mm 3 mps 556 mmHg 59%
    16:00 +20°C° 0.6 mm 4 mps 555 mmHg 62%
    17:00 +19°C° 0.6 mm 4 mps 555 mmHg 65%
    18:00 +18°C° 0.6 mm 4 mps 555 mmHg 69%
    19:00 +17°C° 0.6 mm 3 mps 555 mmHg 74%
    20:00 +16°C° 0.6 mm 3 mps 555 mmHg 79%
    21:00 +15°C° 0.8 mm 2 mps 555 mmHg 80%
    22:00 +15°C° 0.8 mm 2 mps 556 mmHg 81%
    23:00 +14°C° 0.8 mm 2 mps 556 mmHg 83%

    22 February, Thursday

    Time Temperature Precipitation Wind Pressure Humidity
    00:00 +14°C° 1 mm 2 mps 555 mmHg 83%
    01:00 +14°C° 1 mm 1 mps 555 mmHg 83%
    02:00 +14°C° 1 mm 1 mps 554 mmHg 84%
    03:00 +13°C° 1.1 mm 1 mps 554 mmHg 84%
    04:00 +13°C° 1.1 mm 1 mps 554 mmHg 84%
    05:00 +13°C° 1.1 mm 1 mps 554 mmHg 84%
    06:00 +13°C° 0.6 mm 1 mps 554 mmHg 82%
    07:00 +13°C° 0.6 mm 1 mps 555 mmHg 80%
    08:00 +14°C° 0.6 mm 1 mps 555 mmHg 79%
    09:00 +15°C° 0.6 mm 1 mps 556 mmHg 74%
    10:00 +16°C° 0.6 mm 1 mps 556 mmHg 70%
    11:00 +18°C° 0.6 mm 1 mps 557 mmHg 65%
    12:00 +18°C° 0.4 mm 2 mps 556 mmHg 62%
    13:00 +18°C° 0.4 mm 2 mps 556 mmHg 59%
    14:00 +19°C° 0.4 mm 2 mps 555 mmHg 56%
    15:00 +19°C° 0.4 mm 2 mps 555 mmHg 58%
    16:00 +19°C° 0.4 mm 3 mps 554 mmHg 59%
    17:00 +19°C° 0.4 mm 3 mps 554 mmHg 61%
    18:00 +18°C° 0.3 mm 2 mps 554 mmHg 65%
    19:00 +17°C° 0.3 mm 2 mps 554 mmHg 70%
    20:00 +16°C° 0.3 mm 2 mps 554 mmHg 74%
    21:00 +15°C° 0.3 mm 2 mps 554 mmHg 76%
    22:00 +15°C° 0.3 mm 2 mps 554 mmHg 77%
    23:00 +14°C° 0.3 mm 2 mps 555 mmHg 79%

    23 February, Friday

    Time Temperature Precipitation Wind Pressure Humidity
    00:00 +14°C° 0.2 mm 1 mps 554 mmHg 80%
    01:00 +14°C° 0.2 mm 1 mps 554 mmHg 80%
    02:00 +13°C° 0.2 mm 1 mps 553 mmHg 81%
    03:00 +13°C° 0.2 mm 1 mps 553 mmHg 81%
    04:00 +13°C° 0.2 mm 1 mps 553 mmHg 81%
    05:00 +13°C° 0.2 mm 1 mps 553 mmHg 81%
    06:00 +13°C° 0.2 mm 1 mps 553 mmHg 79%
    07:00 +14°C° 0.2 mm 1 mps 554 mmHg 77%
    08:00 +14°C° 0.2 mm 1 mps 555 mmHg 74%
    09:00 +15°C° 0.3 mm 1 mps 555 mmHg 70%
    10:00 +16°C° 0.3 mm 1 mps 555 mmHg 66%
    11:00 +18°C° 0.3 mm 2 mps 556 mmHg 61%
    12:00 +18°C° 0.3 mm 2 mps 555 mmHg 61%
    13:00 +18°C° 0.3 mm 3 mps 555 mmHg 61%
    14:00 +19°C° 0.3 mm 3 mps 554 mmHg 61%
    15:00 +18°C° 0.4 mm 3 mps 554 mmHg 62%
    16:00 +18°C° 0.4 mm 3 mps 554 mmHg 64%
    17:00 +18°C° 0.4 mm 3 mps 553 mmHg 65%
    18:00 +17°C° 0.5 mm 2 mps 553 mmHg 69%
    19:00 +16°C° 0.5 mm 2 mps 554 mmHg 73%
    20:00 +15°C° 0.5 mm 2 mps 554 mmHg 77%
    21:00 +15°C° 0.6 mm 2 mps 554 mmHg 79%
    22:00 +14°C° 0.6 mm 2 mps 554 mmHg 80%
    23:00 +14°C° 0.6 mm 2 mps 555 mmHg 82%
    Show more